Location: Peebles
(55.6412°N, 3.1714°W)
Time: 18:20:59
(UTC+01:00)

USA 281 - Pass Details

Date: 26 January 2022
Orbit: 1070 x 1089 km, 106.0° (Epoch: 25 March)

Event Time Altitude Azimuth Distance (km) Brightness Sun altitude
Rises 05:04:06 0° 36° (NE) 3,901 6.7 -26.7°
Reaches altitude 10° 05:07:06 10° 24° (NNE) 2,945 5.8 -26.3°
Maximum altitude 05:12:09 24° 333° (NNW) 2,080 4.5 -25.6°
Enters shadow 05:12:24 24° 330° (NNW) 2,083 4.5 -25.6°
